Weather History for Fort Stockton, TX

Change the Weather History Date:

Thursday, February 7, 2013

  Actual Average Record
Temperature  
Mean Temperature 58 °F -  
Max Temperature 66 °F 60 °F 82 °F (2007)
Min Temperature 46 °F 36 °F 23 °F (2014)
Degree Days  
Heating Degree Days 7    
Growing Degree Days 8 (Base 50)    
Moisture  
Dew Point 27 °F    
Average Humidity 32    
Maximum Humidity 50    
Minimum Humidity 18    
Precipitation  
Precipitation 0.00 in - - ()
Sea Level Pressure  
Sea Level Pressure 29.96 in    
Wind  
Wind Speed 10 mph (WNW)    
Max Wind Speed 14 mph    
Max Gust Speed 21 mph    
Visibility 10 miles    
Events      
Averages and records for this station are not official NWS values.
T = Trace of Precipitation, MM = Missing Value Source: NWS Daily Summary

Daily Weather History Graph

Daily Weather History Graph

Search for Another Location

Airport:

Trip Planner

Search our weather history database for the weather conditions in past years. The results will help you decide how hot, cold, wet, or windy it might be!

Date:

Astronomy

Feb. 07, 2013 Rise Set
Actual Time 7:39 AM CST 6:32 PM CST
Civil Twilight 7:14 AM CST 6:58 PM CST
Nautical Twilight 6:45 AM CST 7:26 PM CST
Astronomical Twilight 6:17 AM CST 7:54 PM CST
Moon 5:14 AM CST (2/7) 4:05 PM CST (2/7)
Length of Visible Light 11h 43m
Length of Day
10h 53m
Waning Crescent, 9% of the Moon is Illuminated
Feb 7
Waning Crescent
Feb 10
New
Feb 17
First Quarter
Feb 25
Full
Mar 4
Last Quarter

Hourly Weather History & Observations

Time (CST) Temp. Dew Point Humidity Pressure Visibility Wind Dir Wind Speed Gust Speed Precip Events Conditions
12:53 AM 54.0 °F 32.0 °F 43% 29.82 in 10.0 mi SW 10.4 mph - N/A   Clear
1:53 AM 53.1 °F 32.0 °F 45% 29.83 in 10.0 mi SW 13.8 mph - N/A   Clear
2:53 AM 51.1 °F 32.0 °F 48% 29.83 in 10.0 mi SW 10.4 mph - N/A   Clear
3:53 AM 50.0 °F 32.0 °F 50% 29.85 in 10.0 mi SW 10.4 mph - N/A   Clear
4:53 AM 51.1 °F 28.9 °F 43% 29.86 in 10.0 mi WSW 10.4 mph - N/A   Clear
5:53 AM 51.1 °F 27.0 °F 39% 29.88 in 10.0 mi WSW 12.7 mph - N/A   Clear
6:53 AM 51.1 °F 27.0 °F 39% 29.90 in 10.0 mi WSW 11.5 mph - N/A   Clear
7:53 AM 51.1 °F 28.0 °F 41% 29.93 in 10.0 mi SW 10.4 mph - N/A   Clear
8:53 AM 55.9 °F 30.0 °F 37% 29.96 in 10.0 mi WSW 9.2 mph - N/A   Clear
9:53 AM 63.0 °F 30.9 °F 30% 29.97 in 10.0 mi WNW 13.8 mph 20.7 mph N/A   Clear
10:53 AM 62.1 °F 27.0 °F 26% 30.01 in 10.0 mi North 13.8 mph - N/A   Clear
11:53 AM 62.1 °F 24.1 °F 23% 30.02 in 10.0 mi North 10.4 mph - N/A   Clear
12:53 PM 64.0 °F 25.0 °F 23% 30.01 in 10.0 mi NNW 12.7 mph 19.6 mph N/A   Clear
1:53 PM 66.0 °F 24.1 °F 20% 29.98 in 10.0 mi NNW 9.2 mph - N/A   Clear
2:53 PM 66.9 °F 23.0 °F 19% 29.98 in 10.0 mi North 11.5 mph - N/A   Clear
3:53 PM 66.9 °F 21.9 °F 18% 29.97 in 10.0 mi NNW 12.7 mph 18.4 mph N/A   Clear
4:53 PM 66.9 °F 21.9 °F 18% 29.97 in 10.0 mi North 8.1 mph - N/A   Clear
5:53 PM 64.9 °F 23.0 °F 20% 29.99 in 10.0 mi North 9.2 mph - N/A   Clear
6:53 PM 59.0 °F 24.1 °F 26% 30.02 in 10.0 mi North 3.5 mph - N/A   Clear
7:53 PM 57.0 °F 24.1 °F 28% 30.04 in 10.0 mi Calm Calm - N/A   Clear
8:53 PM 55.9 °F 24.1 °F 29% 30.06 in 10.0 mi Calm Calm - N/A   Clear
9:53 PM 53.1 °F 24.1 °F 32% 30.07 in 10.0 mi Calm Calm - N/A   Clear
10:53 PM 51.1 °F 24.1 °F 35% 30.09 in 10.0 mi ENE 3.5 mph - N/A   Clear
11:53 PM 46.9 °F 26.1 °F 44% 30.10 in 10.0 mi East 6.9 mph - N/A   Clear